Location: Hatch End
(51.6000°N, 0.3500°W)
Time: 01:15:28
(UTC+00:00)

Daily predictions for brighter satellites

Satellite Brightness Start Highest point End
(mag) Time Altitude Azimuth Time Altitude Azimuth Time Altitude Azimuth
CENTAUR R/B 4.5 02:05:13 28° NNE 02:05:13 28° NNE 02:09:32 10° NE
ACS3 Solar Sail 4.1 02:00:56 10° NE 02:03:45 17° ENE 02:03:45 17° ENE
ADEOS Rocket 4.4 02:33:16 10° NNE 02:38:45 37° E 02:38:45 37° E
Cosmos 2219 Rocket 4.0 02:55:06 26° E 02:55:06 26° E 02:58:46 10° NE
CZ-2D R/B 4.4 03:13:25 10° N 03:14:23 16° N 03:14:23 16° N
USA 267 3.7 03:14:19 10° ENE 03:20:18 51° SE 03:20:18 51° SE
Cosmos 1980 Rocket 4.3 03:27:56 17° N 03:27:56 17° N 03:29:43 10° NNE
H-2A R/B 3.9 03:26:15 10° NNE 03:28:05 23° NNE 03:28:05 23° NNE
Cosmos 2278 Rocket 3.7 03:29:48 26° NNE 03:31:31 31° NE 03:36:32 10° ESE
USA 238 DEB 4.0 03:33:04 54° NNE 03:33:04 54° NNE 03:38:42 10° NE
USA 238 4.0 03:33:10 55° NNE 03:33:10 55° NNE 03:38:48 10° NE
Cosmos 2333 Rocket 3.1 03:39:30 42° NNE 03:39:30 42° NNE 03:43:15 10° NNE
ADEOS II 4.0 03:38:23 10° N 03:39:55 19° N 03:39:55 19° N
Lacrosse 5 rocket 4.1 03:46:58 13° ENE 03:46:58 13° ENE 03:47:20 10° ENE
COSMOS 2455 3.1 03:45:06 62° NNE 03:45:06 62° NNE 03:50:06 10° NE
ACS3 Solar Sail 1.9 03:42:43 10° NNE 03:47:53 68° NNE 03:47:53 68° NNE
Resurs 1-4 Rocket 4.3 03:47:12 10° N 03:48:13 15° N 03:48:13 15° N
CENTAUR R/B 4.0 03:52:18 29° NNW 03:54:47 35° N 04:02:34 10° ENE
Cosmos 2360 Rocket 2.6 03:59:09 54° N 03:59:09 54° N 04:03:38 10° NNE
Cosmos 2322 Rocket 2.7 03:59:32 49° N 03:59:32 49° N 04:03:49 10° NNE
USA 234 3.2 03:52:43 10° SE 03:58:53 63° SSW 03:58:53 63° SSW
SL-16 R/B 3.3 04:06:02 33° N 04:06:02 33° N 04:09:41 10° NNE
Cosmos 44 Rocket 3.6 04:05:02 68° E 04:05:02 68° E 04:09:40 10° SE
Cosmos 1943 Rocket 2.9 04:06:17 29° N 04:08:48 50° NE 04:14:08 10° SE
Okean 1-7 3.7 04:13:09 49° NE 04:13:09 49° NE 04:16:36 10° NNE
ARGOS 3.2 04:09:09 10° NNE 04:14:37 80° ESE 04:16:18 46° S
Cosmos 1140 Rocket 3.6 04:15:55 52° N 04:17:05 73° ENE 04:22:11 10° SSE
Timation 2 Rocket 4.2 04:14:48 27° NNW 04:18:46 76° NE 04:25:14 10° SE
CZ-2C R/B 2.5 04:14:57 10° NNE 04:19:57 78° ESE 04:21:33 45° S
Cosmos 1809 Rocket 4.4 04:18:17 10° S 04:24:23 80° E 04:30:29 10° NNE
ADEOS Rocket 3.3 04:18:43 10° N 04:24:57 55° WNW 04:25:40 52° W
NOSS 3-1 (C) 3.6 04:27:25 32° S 04:29:24 52° SE 04:34:57 10° NE
Iridium 4 Rocket 4.5 04:26:38 10° N 04:30:45 37° ENE 04:34:40 10° SSE
SJ 16-02 3.9 04:27:50 10° N 04:30:51 18° NE 04:33:50 10° E
Cosmos 2100 Rocket 3.9 04:24:57 10° N 04:31:09 90° ESE 04:37:19 10° S
Cosmos 2219 Rocket 2.2 04:36:49 56° W 04:37:35 62° NW 04:43:15 10° NNE
SL-24 R/B - RUBIN 2 3.8 04:39:23 58° WSW 04:40:24 80° NW 04:45:18 10° NE
TIMED 4.4 04:40:17 57° NNW 04:41:07 82° ENE 04:45:23 10° SSE
Cosmos 1707 Rocket 4.1 04:42:43 45° NNW 04:42:43 45° NNW 04:45:58 10° N
COSMOS 2428 3.0 04:41:51 10° SSW 04:47:30 68° ESE 04:53:10 10° NE
USA 59 Rocket -0.4 04:50:48 59° SE 04:50:48 59° SE 04:53:39 10° NE
SL-08 RB Rocket 3.5 04:47:01 10° N 04:51:35 69° WNW 04:53:29 34° SW
Cosmos 1459 Rocket 3.9 04:45:59 10° NNW 04:52:22 73° W 04:58:40 10° S
Cosmos 1864 Rocket 4.5 04:46:57 10° N 04:53:16 90° E 04:59:35 10° S
Cosmos 2322 3.7 04:50:01 14° SSW 04:54:56 86° ESE 05:00:39 10° NNE
FengYun 1-2 T 4.4 04:50:59 10° NNE 04:56:33 75° ESE 05:02:08 10° S
CZ-2D R/B 4.2 04:54:57 10° NNW 04:55:38 12° NNW 04:55:38 12° NNW
Cosmos 407 Rocket 3.4 04:54:46 15° NNW 04:59:03 84° ENE 05:04:09 10° SSE
COSMO-SKYMED 1 3.0 04:55:38 10° SSE 04:59:40 57° ENE 05:03:44 10° N
Meteor 2-21 4.3 04:53:56 10° SSW 05:00:02 78° WNW 05:06:08 10° N
SKYMED 2 3.6 04:56:38 10° SSE 05:00:58 80° ENE 05:05:20 10° NNW
Cosmos 1727 Rocket 4.0 04:56:33 10° SSW 05:02:37 57° WNW 05:08:47 10° N
Cosmos 1725 Rocket 3.9 04:56:27 10° N 05:02:49 86° W 05:09:08 10° S
Cosmos 2228 Rocket 3.2 05:03:28 46° W 05:03:43 47° WNW 05:08:00 10° N
USA 267 3.2 04:57:25 10° ENE 05:03:57 75° NNW 05:07:39 28° W
Cosmos 2150 Rocket 4.5 05:03:45 37° WNW 05:04:25 38° NW 05:09:22 10° NNE
H-2A R/B 3.6 05:06:25 10° N 05:08:34 18° NNW 05:08:34 18° NNW
Cosmos 1802 Rocket 3.9 05:04:19 10° NNW 05:10:42 71° W 05:16:57 10° S
Cosmos 1269 Rocket 4.4 05:09:27 32° WNW 05:11:05 40° WSW 05:15:59 10° S
Cosmos 1980 Rocket 4.3 05:09:40 10° NNW 05:11:12 11° NNW 05:13:04 10° N
NOSS 3-1 (A) 3.9 05:09:03 10° SSW 05:13:36 48° ESE 05:19:05 10° NE
Cosmos 2233 Rocket 4.1 05:07:39 10° N 05:14:02 82° E 05:20:19 10° SSE
Cosmos 2278 Rocket 2.2 05:11:40 17° NW 05:16:00 64° WSW 05:21:35 10° SSE
Cosmos 1328 3.4 05:13:11 10° SSW 05:16:47 64° WNW 05:20:26 10° N
Cosmos 2251 Rocket 3.8 05:12:30 10° NNW 05:17:52 72° ENE 05:23:13 10° SSE
Cosmos 1703 Rocket 3.4 05:13:51 10° SSW 05:18:12 77° WNW 05:22:37 10° N
CZ-3 R/B 4.5 05:19:01 10° SSW 05:19:37 10° S 05:20:10 10° S
NOSS 2-1 (E) 2.7 05:18:52 28° SW 05:20:32 86° SE 05:23:35 10° NE
Cosmos 1939 Rocket 2.9 05:17:10 10° N 05:20:53 46° WNW 05:23:41 16° SW
Lacrosse 5 rocket 1.8 05:20:39 31° NNW 05:21:17 34° N 05:24:25 10° ENE
Cosmos 2173 Rocket 4.2 05:15:53 10° NNW 05:21:35 43° W 05:27:15 10° SSW
ADEOS II 4.1 05:19:54 10° NNW 05:20:43 11° NNW 05:20:43 11° NNW
Meteor 2-16 Rocket 4.4 05:16:31 10° SSW 05:22:37 84° W 05:28:48 10° N
Cosmos 2333 Rocket 3.5 05:21:33 21° NW 05:22:44 22° NW 05:27:12 10° NNE
USA-17 4.1 05:22:08 42° NW 05:23:04 80° SW 05:26:20 10° SE
Cosmos 2237 Rocket 2.9 05:18:03 10° S 05:23:35 57° ESE 05:29:08 10° NE
SL-08 R/B 4.4 05:18:49 10° NNW 05:24:55 74° W 05:31:03 10° S
BlueWalker 3 3.3 05:27:40 21° SW 05:27:57 21° SW 05:30:43 10° S
Cosmos 2292 Rocket 3.8 05:24:20 10° S 05:28:39 87° W 05:34:19 10° N
USA 276 4.3 05:29:39 11° SSW 05:29:39 11° SSW 05:30:02 10° SSW
COSMOS 2455 3.8 05:28:15 22° WNW 05:30:45 29° NNW 05:35:59 10° NNE
ACS3 Solar Sail 2.9 05:26:41 10° N 05:31:03 22° NW 05:32:02 21° WNW
Meteor 1-24 Rocket 3.7 05:27:39 10° SSW 05:33:22 63° WNW 05:38:55 10° N
Cosmos 2369 Rocket 3.5 05:28:23 10° NNW 05:33:39 37° NE 05:38:53 10° ESE
Helios 1A Rocket 2.7 05:30:51 10° S 05:34:07 43° W 05:36:22 18° NW
CZ-4 R/B 3.8 05:30:28 10° NNE 05:35:24 75° WNW 05:40:13 10° SSW
Cosmos 1782 Rocket 3.5 05:32:54 10° NNW 05:37:16 61° W 05:41:34 10° S
SJ-11-01 4.4 05:37:54 10° N 05:42:26 49° WNW 05:46:56 10° SW
Cosmos 2360 Rocket 3.5 05:40:55 18° WNW 05:42:55 21° NW 05:47:11 10° NNE
USA 234 4.5 05:38:12 10° S 05:43:06 22° SW 05:46:14 16° W
Cosmos 2322 Rocket 3.6 05:41:20 17° WNW 05:43:18 20° NNW 05:47:25 10° NNE
Cosmos 2123 Rocket 4.1 05:38:06 10° SSW 05:44:08 52° WNW 05:50:12 10° N
Meteor 2-5 Rocket 3.9 05:38:44 10° SSW 05:44:33 58° WNW 05:50:21 10° N
NOAA 12 4.0 05:39:21 10° NNE 05:44:41 73° WNW 05:49:58 10° SSW
Gbstr 26 Del rocket 3.8 05:41:19 14° WSW 05:45:45 75° SSE 05:52:01 10° ENE
H-2A R/B 4.5 05:43:09 10° NNW 05:46:04 21° WNW 05:46:34 20° WNW
CENTAUR R/B 3.7 05:39:24 10° NW 05:47:00 59° NE 05:56:03 10° ESE
Okean 1-7 4.3 05:49:34 18° WNW 05:49:52 18° WNW 05:52:52 10° NNW
SL-16 R/B 4.0 05:47:53 12° NW 05:50:02 15° NNW 05:53:11 10° N
TiPS 4.5 05:48:37 10° SW 05:51:00 75° SE 05:53:17 10° NE
Cosmos 1943 Rocket 2.8 05:47:50 12° NW 05:52:20 34° WSW 05:57:14 10° S
Cosmos 2016 Rocket 4.3 05:46:54 10° NNW 05:52:52 43° W 05:58:48 10° SSW
ARGOS 4.3 05:50:15 10° N 05:54:16 22° NW 05:57:45 12° W
Cosmos 1812 2.6 05:53:22 10° N 05:56:18 58° ENE 05:59:10 10° SSE
CZ-2C R/B 3.7 05:53:55 10° N 05:57:30 20° WNW 06:00:45 11° W
Cosmos 1300 Rocket 4.1 05:53:42 10° NNW 05:57:40 35° W 06:01:35 10° SSW
Cosmos 374 Rocket 4.4 05:57:51 10° WSW 06:01:40 66° NW 06:06:12 10° NE
Cosmos 2346 Rocket 4.4 05:56:38 10° S 06:02:48 84° W 06:08:58 10° N
NOSS 2-1 (C) 3.4 06:00:52 14° W 06:03:14 34° NW 06:06:01 10° NNE
NOSS 2-1 (D) 3.6 06:04:54 14° W 06:07:14 30° NW 06:09:56 10° NNE
SJ 16-02 1.2 06:05:11 10° NNW 06:09:30 74° WSW 06:13:46 10° SSE
Iridium 4 Rocket 4.0 06:06:46 10° NNW 06:10:20 25° W 06:13:45 10° SW
Aureole 3 Rocket 3.3 06:06:29 10° NNW 06:10:35 73° W 06:16:14 10° S
Okean 1 Rocket 4.4 06:06:42 10° N 06:10:51 41° ENE 06:14:57 10° SE
Cosmos 2061 Rocket 4.3 06:07:26 10° NNW 06:13:17 45° W 06:19:05 10° SSW
CBERS-1 4.1 06:09:39 10° NNE 06:14:49 85° ESE 06:19:56 10° SSW
SWARM C 4.4 06:14:24 10° S 06:17:42 72° W 06:21:03 10° N
SWARM A 4.2 06:14:29 10° S 06:17:47 85° W 06:21:08 10° N
Cosmos 1190 Rocket 4.3 06:13:51 10° NW 06:18:55 48° WSW 06:23:55 10° S
IRS-1D 4.1 06:14:31 10° N 06:18:57 33° WNW 06:23:20 10° SW
Cosmos 676 Rocket 4.0 06:14:44 10° NNW 06:20:00 72° WSW 06:25:11 10° SSE
NOSS 3-1 (C) 3.6 06:15:26 10° W 06:20:16 43° NNW 06:26:15 10° NE
Cosmos 1378 Rocket 3.8 06:16:08 10° S 06:20:23 71° E 06:24:40 10° NNE
Cosmos 1869 3.4 06:18:01 10° NNW 06:21:19 40° W 06:24:36 10° SSW
SL-16 R/B 3.4 06:16:25 10° S 06:21:52 49° ESE 06:27:20 10° NE
Cosmos 2219 Rocket 3.6 06:18:43 10° WNW 06:22:43 19° NNW 06:26:44 10° NNE
In-Cosmos 22 Rocket 4.4 06:17:02 10° S 06:22:51 89° W 06:28:44 10° NNE
Cosmos 2056 Rocket 3.7 06:21:15 10° SSW 06:26:40 84° ESE 06:32:06 10° NNE
Okean 2 Rocket 3.4 06:24:13 10° N 06:28:36 73° ENE 06:32:58 10° SSE
Cosmos 371 Rocket 3.4 06:25:24 10° NNW 06:30:10 57° WSW 06:34:53 10° S
NOSS 0 Rocket 4.2 06:24:45 10° WSW 06:30:38 46° NW 06:36:34 10° NNE
COSMOS 2428 3.5 06:27:13 10° WSW 06:32:13 30° NW 06:37:13 10° NNE
COSMO-SKYMED 1 3.9 06:32:32 10° SW 06:35:21 18° W 06:38:11 10° NW
Cosmos 1954 Rocket 4.5 06:32:05 10° NW 06:36:58 41° WSW 06:41:47 10° S
